START_TIME,STEP,MOV.,AL01,t_acc.,AL02,t_acc.,E37,t_acc.,H21,t_acc.
1979-07-30 09:00:33.350 ,0,0,0.,24.0,0.,24.0,0.,24.0,0.,24.0
1979-07-30 09:00:57.350 ,0,1,0.,24.0,0.,24.0,0.,24.0,0.,24.0
1979-07-30 09:01:21.350 ,0,0,0.,24.0,0.,24.0,0.,24.0,0.,24.0
1979-07-30 09:01:45.350 ,1,1,0.,24.0,0.,24.0,1.,24.0,0.,24.0
1979-07-30 09:02:09.350 ,1,0,0.,24.0,0.,24.0,1.,24.0,0.,24.0
1979-07-30 09:02:33.350 ,2,1,0.,24.0,0.,24.0,1.,24.0,0.,24.0
1979-07-30 09:02:57.350 ,2,0,1.,24.0,0.,24.0,1.,24.0,0.,24.0
1979-07-30 09:03:21.350 ,3,1,0.,24.0,0.,24.0,1.,24.0,0.,24.0
1979-07-30 09:03:45.350 ,3,0,0.,24.0,0.,24.0,1.,24.0,0.,24.0
1979-07-30 09:04:09.350 ,4,1,0.,24.0,0.,24.0,1.,24.0,0.,24.0
1979-07-30 09:04:33.350 ,4,0,0.,24.0,0.,24.0,1.,24.0,0.,24.0
1979-07-30 09:04:57.350 ,5,1,1.,24.0,0.,24.0,1.,24.0,0.,24.0
1979-07-30 09:05:21.350 ,5,0,0.,24.0,0.,24.0,1.,24.0,0.,24.0
1979-07-30 09:05:45.350 ,6,1,0.,24.0,0.,24.0,0.,24.0,0.,24.0
1979-07-30 09:06:09.350 ,6,0,0.,24.0,0.,24.0,0.,24.0,0.,24.0
1979-07-30 09:06:33.350 ,7,0,3.,24.0,0.,24.0,1.,24.0,0.,24.0
1979-07-30 09:06:57.350 ,7,0,29.,24.0,0.,24.0,2.,24.0,0.,24.0
1979-07-30 09:07:21.350 ,5,1,25.,24.0,0.,24.0,0.,24.0,0.,24.0
1979-07-30 09:07:45.350 ,1,1,0.,24.0,0.,24.0,0.,24.0,0.,24.0
1979-07-30 09:08:09.350 ,2,1,0.,24.0,0.,24.0,1.,24.0,0.,24.0
1979-07-30 09:08:33.350 ,6,1,0.,24.0,0.,24.0,0.,24.0,0.,24.0
1979-07-30 09:08:57.350 ,5,1,16.,24.0,0.,24.0,2.,24.0,0.,24.0
1979-07-30 09:09:21.350 ,1,1,1.,24.0,0.,24.0,0.,24.0,0.,24.0
1979-07-30 09:09:45.350 ,2,1,0.,24.0,0.,24.0,0.,24.0,0.,24.0
1979-07-30 09:10:09.350 ,6,1,0.,24.0,0.,24.0,1.,24.0,0.,24.0
1979-07-30 09:10:33.350 ,5,1,18.,24.0,0.,24.0,0.,24.0,0.,24.0
1979-07-30 09:10:57.350 ,1,1,0.,24.0,0.,24.0,2.,24.0,0.,24.0
1979-07-30 09:11:21.350 ,2,1,0.,24.0,0.,24.0,0.,24.0,0.,24.0
1979-07-30 09:11:45.350 ,6,1,1.,24.0,0.,24.0,0.,24.0,0.,24.0
1979-07-30 09:12:09.350 ,5,1,14.,24.0,0.,24.0,0.,24.0,0.,24.0
1979-07-30 09:12:33.350 ,1,1,0.,24.0,0.,24.0,1.,24.0,0.,24.0
1979-07-30 09:12:57.350 ,2,1,0.,24.0,0.,24.0,0.,24.0,0.,24.0
1979-07-30 09:13:21.350 ,6,1,0.,24.0,0.,24.0,0.,24.0,0.,24.0
1979-07-30 09:13:45.350 ,5,1,10.,24.0,0.,24.0,0.,24.0,0.,24.0
1979-07-30 09:14:09.350 ,1,1,0.,24.0,0.,24.0,0.,24.0,0.,24.0
1979-07-30 09:14:33.350 ,2,1,0.,24.0,0.,24.0,2.,24.0,0.,24.0
1979-07-30 09:14:57.350 ,6,1,0.,24.0,0.,24.0,1.,24.0,0.,24.0
1979-07-30 09:15:21.350 ,5,1,14.,24.0,0.,24.0,1.,24.0,0.,24.0
1979-07-30 09:15:45.350 ,1,1,0.,24.0,0.,24.0,0.,24.0,0.,24.0
1979-07-30 09:16:09.350 ,2,1,0.,24.0,0.,24.0,0.,24.0,0.,24.0
1979-07-30 09:16:33.350 ,6,1,0.,24.0,0.,24.0,2.,24.0,0.,24.0
1979-07-30 09:16:57.350 ,5,1,12.,24.0,0.,24.0,0.,24.0,0.,24.0
1979-07-30 09:17:21.350 ,1,1,0.,24.0,0.,24.0,0.,24.0,0.,24.0
1979-07-30 09:17:45.350 ,0,0,0.,24.0,0.,24.0,1.,24.0,0.,24.0
1979-07-30 09:18:09.350 ,0,0,0.,24.0,0.,24.0,3.,24.0,0.,24.0
1979-07-30 09:18:33.350 ,5,1,11.,24.0,0.,24.0,2.,24.0,0.,24.0
1979-07-30 09:18:57.350 ,5,0,0.,24.0,0.,24.0,2.,24.0,0.,24.0
1979-07-30 09:19:21.350 ,4,1,0.,24.0,0.,24.0,1.,24.0,0.,24.0
1979-07-30 09:19:45.350 ,4,0,0.,24.0,0.,24.0,4.,24.0,0.,24.0
1979-07-30 09:20:09.350 ,3,1,0.,24.0,0.,24.0,1.,24.0,0.,24.0
1979-07-30 09:20:33.350 ,3,0,0.,24.0,0.,24.0,1.,24.0,0.,24.0
1979-07-30 09:20:57.350 ,2,1,1.,24.0,0.,24.0,1.,24.0,0.,24.0
1979-07-30 09:21:21.350 ,2,0,0.,24.0,0.,24.0,0.,24.0,0.,24.0
1979-07-30 09:21:45.350 ,1,1,2.,24.0,0.,24.0,1.,24.0,0.,24.0
1979-07-30 09:22:09.350 ,1,0,0.,24.0,0.,24.0,1.,24.0,0.,24.0
1979-07-30 09:22:33.350 ,0,1,0.,24.0,0.,24.0,2.,24.0,0.,24.0
1979-07-30 09:22:57.350 ,0,0,0.,24.0,0.,24.0,4.,24.0,0.,24.0
1979-07-30 09:23:21.350 ,0,1,0.,24.0,0.,24.0,2.,24.0,0.,24.0
1979-07-30 09:23:45.350 ,0,0,0.,24.0,0.,24.0,2.,24.0,0.,24.0
1979-07-30 09:24:09.350 ,1,1,0.,24.0,0.,24.0,0.,24.0,0.,24.0
1979-07-30 09:24:33.350 ,1,0,0.,24.0,0.,24.0,1.,24.0,0.,24.0
1979-07-30 09:24:57.350 ,2,1,0.,24.0,0.,24.0,0.,24.0,0.,24.0
1979-07-30 09:25:21.350 ,2,0,0.,24.0,0.,24.0,1.,24.0,0.,24.0
1979-07-30 09:25:45.350 ,3,1,,0,,0,,0,,0
1979-07-30 09:26:09.350 ,3,0,0.,24.0,0.,24.0,0.,24.0,0.,24.0
1979-07-30 09:26:33.350 ,4,1,0.,24.0,0.,24.0,1.,24.0,0.,24.0
1979-07-30 09:26:57.350 ,4,0,0.,24.0,0.,24.0,0.,24.0,0.,24.0
1979-07-30 09:27:21.350 ,5,1,0.,24.0,0.,24.0,0.,24.0,0.,24.0
1979-07-30 09:27:45.350 ,5,0,0.,24.0,0.,24.0,1.,24.0,0.,24.0
1979-07-30 09:28:09.350 ,6,1,0.,24.0,1.,24.0,0.,24.0,0.,24.0
1979-07-30 09:28:33.350 ,6,0,0.,24.0,0.,24.0,0.,24.0,0.,24.0
1979-07-30 09:28:57.350 ,7,1,8.,24.0,0.,24.0,0.,24.0,0.,24.0
1979-07-30 09:29:21.350 ,7,0,27.,24.0,0.,24.0,3.,24.0,0.,24.0
1979-07-30 09:29:45.350 ,7,1,40.,24.0,0.,24.0,1.,24.0,0.,24.0
1979-07-30 09:30:09.350 ,7,0,19.,24.0,0.,24.0,0.,24.0,0.,24.0
1979-07-30 09:30:33.350 ,0,0,20.,24.0,0.,24.0,1.,24.0,0.,24.0
1979-07-30 09:30:57.350 ,0,0,0.,24.0,0.,24.0,1.,24.0,0.,24.0
1979-07-30 09:31:21.350 ,5,1,0.,24.0,0.,24.0,1.,24.0,0.,24.0
1979-07-30 09:31:45.350 ,5,0,0.,24.0,0.,24.0,1.,24.0,0.,24.0
1979-07-30 09:32:09.350 ,4,1,0.,24.0,0.,24.0,2.,24.0,0.,24.0
1979-07-30 09:32:33.350 ,4,0,0.,24.0,0.,24.0,1.,24.0,0.,24.0
1979-07-30 09:32:57.350 ,3,1,0.,24.0,1.,24.0,0.,24.0,0.,24.0
1979-07-30 09:33:21.350 ,3,0,0.,24.0,0.,24.0,0.,24.0,0.,24.0
1979-07-30 09:33:45.350 ,2,1,0.,24.0,0.,24.0,0.,24.0,0.,24.0
1979-07-30 09:34:09.340 ,2,0,0.,24.0,0.,24.0,2.,24.0,0.,24.0
1979-07-30 09:34:33.340 ,1,1,1.,24.0,0.,24.0,2.,24.0,0.,24.0
1979-07-30 09:34:57.340 ,1,0,0.,24.0,0.,24.0,2.,24.0,0.,24.0
1979-07-30 09:35:21.340 ,0,1,0.,24.0,0.,24.0,1.,24.0,0.,24.0
1979-07-30 09:35:45.340 ,0,0,0.,24.0,0.,24.0,2.,24.0,0.,24.0
1979-07-30 09:36:09.340 ,0,1,0.,24.0,0.,24.0,3.,24.0,0.,24.0
1979-07-30 09:36:33.340 ,0,0,0.,24.0,0.,24.0,1.,24.0,0.,24.0
1979-07-30 09:36:57.340 ,1,1,0.,24.0,0.,24.0,0.,24.0,0.,24.0
1979-07-30 09:37:21.340 ,1,0,0.,24.0,0.,24.0,1.,24.0,0.,24.0
1979-07-30 09:37:45.340 ,2,1,0.,24.0,0.,24.0,1.,24.0,0.,24.0
1979-07-30 09:38:09.340 ,2,0,0.,24.0,0.,24.0,0.,24.0,0.,24.0
1979-07-30 09:38:33.340 ,3,1,0.,24.0,0.,24.0,1.,24.0,0.,24.0
1979-07-30 09:38:57.340 ,3,0,1.,24.0,0.,24.0,3.,24.0,0.,24.0
1979-07-30 09:40:09.340 ,0,0,0.,24.0,0.,24.0,0.,24.0,0.,24.0
1979-07-30 09:40:33.340 ,0,0,0.,24.0,0.,24.0,0.,24.0,0.,24.0
1979-07-30 09:40:57.340 ,6,1,0.,24.0,0.,24.0,0.,24.0,0.,24.0
1979-07-30 09:41:21.340 ,6,0,0.,24.0,0.,24.0,0.,24.0,0.,24.0
1979-07-30 09:41:45.340 ,7,1,7.,24.0,0.,24.0,2.,24.0,0.,24.0
1979-07-30 09:42:09.340 ,7,0,27.,24.0,0.,24.0,3.,24.0,0.,24.0
1979-07-30 09:42:33.340 ,7,1,35.,24.0,0.,24.0,0.,24.0,0.,24.0
1979-07-30 09:42:57.340 ,7,0,30.,24.0,0.,24.0,1.,24.0,0.,24.0
1979-07-30 09:43:21.340 ,6,1,20.,24.0,0.,24.0,1.,24.0,0.,24.0
1979-07-30 09:43:45.340 ,6,0,0.,24.0,0.,24.0,2.,24.0,0.,24.0
1979-07-30 09:44:09.340 ,5,1,1.,24.0,0.,24.0,1.,24.0,0.,24.0
1979-07-30 09:44:33.340 ,5,0,0.,24.0,0.,24.0,1.,24.0,0.,24.0
1979-07-30 09:44:57.340 ,4,1,0.,24.0,0.,24.0,0.,24.0,0.,24.0
1979-07-30 09:45:21.340 ,4,0,0.,24.0,0.,24.0,1.,24.0,0.,24.0
1979-07-30 09:45:45.340 ,3,1,1.,24.0,0.,24.0,4.,24.0,0.,24.0
1979-07-30 09:46:09.340 ,3,0,1.,24.0,0.,24.0,0.,24.0,0.,24.0
1979-07-30 09:46:33.340 ,2,1,0.,24.0,0.,24.0,0.,24.0,0.,24.0
1979-07-30 09:46:57.340 ,2,0,0.,24.0,1.,24.0,0.,24.0,0.,24.0
1979-07-30 09:47:21.340 ,1,1,1.,24.0,0.,24.0,0.,24.0,0.,24.0
1979-07-30 09:47:45.340 ,1,0,0.,24.0,0.,24.0,2.,24.0,0.,24.0
1979-07-30 09:48:09.340 ,0,1,1.,24.0,0.,24.0,2.,24.0,0.,24.0
1979-07-30 09:48:33.340 ,0,0,0.,24.0,0.,24.0,2.,24.0,0.,24.0
1979-07-30 09:48:57.340 ,0,1,0.,24.0,0.,24.0,2.,24.0,0.,24.0
1979-07-30 09:49:21.340 ,0,0,0.,24.0,0.,24.0,3.,24.0,0.,24.0
1979-07-30 09:49:45.340 ,1,1,0.,24.0,0.,24.0,0.,24.0,0.,24.0
1979-07-30 09:50:09.340 ,1,0,0.,24.0,0.,24.0,1.,24.0,0.,24.0
1979-07-30 09:50:33.340 ,2,1,0.,24.0,0.,24.0,0.,24.0,0.,24.0
1979-07-30 09:50:57.340 ,2,0,0.,24.0,0.,24.0,1.,24.0,0.,24.0
1979-07-30 09:51:21.340 ,3,1,0.,24.0,0.,24.0,3.,24.0,0.,24.0
1979-07-30 09:51:45.340 ,3,0,0.,24.0,0.,24.0,1.,24.0,0.,24.0
1979-07-30 09:52:09.340 ,4,1,0.,24.0,0.,24.0,0.,24.0,0.,24.0
1979-07-30 09:52:33.340 ,4,0,0.,24.0,0.,24.0,1.,24.0,0.,24.0
1979-07-30 09:52:57.340 ,5,1,0.,24.0,0.,24.0,2.,24.0,0.,24.0
1979-07-30 09:53:21.340 ,5,0,0.,24.0,0.,24.0,1.,24.0,0.,24.0
1979-07-30 09:53:45.340 ,6,1,0.,24.0,0.,24.0,1.,24.0,0.,24.0
1979-07-30 09:54:09.340 ,6,0,0.,24.0,0.,24.0,2.,24.0,0.,24.0
1979-07-30 09:54:33.340 ,7,0,6.,24.0,0.,24.0,0.,24.0,0.,24.0
1979-07-30 09:54:57.340 ,7,0,43.,24.0,0.,24.0,1.,24.0,0.,24.0
1979-07-30 09:55:21.340 ,5,1,19.,24.0,0.,24.0,0.,24.0,0.,24.0
1979-07-30 09:55:45.340 ,1,1,0.,24.0,0.,24.0,2.,24.0,0.,24.0
1979-07-30 09:56:09.340 ,2,1,0.,24.0,0.,24.0,1.,24.0,0.,24.0
1979-07-30 09:56:33.340 ,6,1,0.,24.0,0.,24.0,0.,24.0,0.,24.0
1979-07-30 09:56:57.340 ,5,1,15.,24.0,0.,24.0,2.,24.0,0.,24.0
1979-07-30 09:57:21.340 ,1,1,0.,24.0,0.,24.0,0.,24.0,0.,24.0
1979-07-30 09:57:45.340 ,2,1,0.,24.0,0.,24.0,5.,24.0,0.,24.0
1979-07-30 09:58:09.340 ,6,1,0.,24.0,0.,24.0,1.,24.0,0.,24.0
1979-07-30 09:58:33.340 ,5,1,17.,24.0,0.,24.0,4.,24.0,0.,24.0
1979-07-30 09:58:57.340 ,1,1,1.,24.0,0.,24.0,0.,24.0,0.,24.0
1979-07-30 09:59:21.340 ,2,1,1.,24.0,0.,24.0,1.,24.0,0.,24.0
1979-07-30 09:59:45.340 ,6,1,0.,24.0,0.,24.0,3.,24.0,0.,24.0
1979-07-30 10:00:09.340 ,5,1,16.,24.0,0.,24.0,2.,24.0,0.,24.0
1979-07-30 10:00:33.340 ,1,1,0.,24.0,0.,24.0,0.,24.0,0.,24.0
1979-07-30 10:00:57.340 ,2,1,0.,24.0,0.,24.0,3.,24.0,0.,24.0
1979-07-30 10:01:21.340 ,6,1,0.,24.0,0.,24.0,2.,24.0,0.,24.0
1979-07-30 10:01:45.340 ,5,1,16.,24.0,0.,24.0,0.,24.0,0.,24.0
1979-07-30 10:02:09.340 ,1,1,0.,24.0,1.,24.0,2.,24.0,0.,24.0
1979-07-30 10:02:33.340 ,2,1,0.,24.0,0.,24.0,1.,24.0,0.,24.0
1979-07-30 10:02:57.340 ,6,1,0.,24.0,0.,24.0,3.,24.0,0.,24.0
1979-07-30 10:03:21.340 ,5,1,14.,24.0,0.,24.0,2.,24.0,0.,24.0
1979-07-30 10:03:45.340 ,1,1,1.,24.0,0.,24.0,0.,24.0,0.,24.0
1979-07-30 10:04:09.340 ,2,1,0.,24.0,0.,24.0,2.,24.0,0.,24.0
1979-07-30 10:04:33.340 ,6,1,0.,24.0,0.,24.0,3.,24.0,0.,24.0
1979-07-30 10:04:57.340 ,5,1,7.,24.0,0.,24.0,4.,24.0,0.,24.0
1979-07-30 10:05:21.340 ,1,1,0.,24.0,0.,24.0,0.,24.0,0.,24.0
1979-07-30 10:05:45.340 ,0,0,0.,24.0,0.,24.0,1.,24.0,0.,24.0
1979-07-30 10:06:09.340 ,0,0,0.,24.0,0.,24.0,0.,24.0,0.,24.0
1979-07-30 10:06:33.340 ,5,1,15.,24.0,0.,24.0,3.,24.0,0.,24.0
1979-07-30 10:06:57.340 ,5,0,0.,24.0,0.,24.0,3.,24.0,0.,24.0
1979-07-30 10:07:21.340 ,4,1,0.,24.0,0.,24.0,1.,24.0,0.,24.0
1979-07-30 10:07:45.340 ,4,0,0.,24.0,0.,24.0,1.,24.0,0.,24.0
1979-07-30 10:08:09.340 ,3,1,0.,24.0,0.,24.0,2.,24.0,0.,24.0
1979-07-30 10:08:33.340 ,3,0,0.,24.0,0.,24.0,2.,24.0,0.,24.0
1979-07-30 10:08:57.340 ,2,1,0.,24.0,0.,24.0,1.,24.0,0.,24.0
1979-07-30 10:09:21.340 ,2,0,0.,24.0,0.,24.0,2.,24.0,0.,24.0
1979-07-30 10:09:45.340 ,1,1,0.,24.0,0.,24.0,1.,24.0,0.,24.0
1979-07-30 10:10:09.340 ,1,0,0.,24.0,0.,24.0,2.,24.0,0.,24.0
1979-07-30 10:10:33.340 ,0,1,0.,24.0,0.,24.0,0.,24.0,0.,24.0
1979-07-30 10:10:57.340 ,0,0,0.,24.0,0.,24.0,0.,24.0,0.,24.0
1979-07-30 10:11:21.340 ,0,1,1.,24.0,0.,24.0,3.,24.0,0.,24.0
1979-07-30 10:11:45.340 ,0,0,0.,24.0,0.,24.0,0.,24.0,0.,24.0
1979-07-30 10:12:09.340 ,1,1,1.,24.0,0.,24.0,2.,24.0,0.,24.0
1979-07-30 10:12:33.340 ,1,0,0.,24.0,0.,24.0,3.,24.0,0.,24.0
1979-07-30 10:12:57.340 ,2,1,0.,24.0,0.,24.0,0.,24.0,0.,24.0
1979-07-30 10:13:21.340 ,2,0,0.,24.0,1.,24.0,1.,24.0,0.,24.0
1979-07-30 10:13:45.340 ,3,1,0.,24.0,0.,24.0,0.,24.0,0.,24.0
1979-07-30 10:14:09.340 ,3,0,0.,24.0,0.,24.0,1.,24.0,0.,24.0
1979-07-30 10:14:33.340 ,4,1,0.,24.0,0.,24.0,0.,24.0,0.,24.0
1979-07-30 10:14:57.340 ,4,0,0.,24.0,0.,24.0,2.,24.0,0.,24.0
1979-07-30 10:15:21.340 ,5,1,0.,24.0,0.,24.0,1.,24.0,0.,24.0
1979-07-30 10:15:45.340 ,5,0,0.,24.0,0.,24.0,2.,24.0,0.,24.0
1979-07-30 10:16:09.340 ,6,1,0.,24.0,0.,24.0,1.,24.0,0.,24.0
1979-07-30 10:16:33.340 ,6,0,1.,24.0,0.,24.0,1.,24.0,0.,24.0
1979-07-30 10:16:57.340 ,7,1,6.,24.0,0.,24.0,1.,24.0,0.,24.0
1979-07-30 10:17:21.340 ,7,0,41.,24.0,0.,24.0,1.,24.0,0.,24.0
1979-07-30 10:17:45.340 ,7,1,27.,24.0,0.,24.0,1.,24.0,0.,24.0
1979-07-30 10:18:09.340 ,7,0,25.,24.0,0.,24.0,1.,24.0,0.,24.0
1979-07-30 10:18:33.340 ,6,1,19.,24.0,0.,24.0,2.,24.0,0.,24.0
1979-07-30 10:18:57.340 ,6,0,1.,24.0,1.,24.0,1.,24.0,0.,24.0
1979-07-30 10:19:21.340 ,5,1,0.,24.0,0.,24.0,2.,24.0,0.,24.0
1979-07-30 10:19:45.340 ,5,0,0.,24.0,0.,24.0,2.,24.0,0.,24.0
1979-07-30 10:20:09.340 ,4,1,0.,24.0,0.,24.0,2.,24.0,0.,24.0
1979-07-30 10:20:33.340 ,4,0,0.,24.0,0.,24.0,1.,24.0,0.,24.0
1979-07-30 10:20:57.340 ,3,1,0.,24.0,0.,24.0,2.,24.0,0.,24.0
1979-07-30 10:21:21.340 ,3,0,0.,24.0,0.,24.0,0.,24.0,0.,24.0
1979-07-30 10:21:45.340 ,2,1,0.,24.0,0.,24.0,0.,24.0,0.,24.0
1979-07-30 10:22:09.340 ,2,0,0.,24.0,0.,24.0,2.,24.0,0.,24.0
1979-07-30 10:22:33.340 ,1,1,1.,24.0,0.,24.0,2.,24.0,0.,24.0
1979-07-30 10:22:57.340 ,1,0,0.,24.0,0.,24.0,0.,24.0,0.,24.0
1979-07-30 10:23:21.340 ,0,1,0.,24.0,1.,24.0,3.,24.0,0.,24.0
1979-07-30 10:23:45.340 ,0,0,0.,24.0,0.,24.0,3.,24.0,0.,24.0
1979-07-30 10:24:09.340 ,0,1,0.,24.0,0.,24.0,2.,24.0,0.,24.0
1979-07-30 10:24:33.340 ,0,0,0.,24.0,0.,24.0,1.,24.0,0.,24.0
1979-07-30 10:24:57.340 ,1,1,1.,24.0,0.,24.0,0.,24.0,0.,24.0
1979-07-30 10:25:21.340 ,1,0,0.,24.0,0.,24.0,1.,24.0,0.,24.0
1979-07-30 10:25:45.340 ,2,1,0.,24.0,0.,24.0,1.,24.0,0.,24.0
1979-07-30 10:26:09.340 ,2,0,0.,24.0,0.,24.0,2.,24.0,0.,24.0
1979-07-30 10:26:33.340 ,3,1,0.,24.0,0.,24.0,2.,24.0,0.,24.0
1979-07-30 10:26:57.340 ,3,0,0.,24.0,0.,24.0,2.,24.0,0.,24.0
1979-07-30 10:27:21.340 ,4,1,1.,24.0,1.,24.0,1.,24.0,0.,24.0
1979-07-30 10:27:45.340 ,4,0,0.,24.0,0.,24.0,1.,24.0,0.,24.0
1979-07-30 10:28:09.340 ,5,1,0.,24.0,0.,24.0,0.,24.0,0.,24.0
1979-07-30 10:28:33.340 ,5,0,0.,24.0,0.,24.0,1.,24.0,0.,24.0
1979-07-30 10:28:57.340 ,6,1,0.,24.0,0.,24.0,1.,24.0,0.,24.0
1979-07-30 10:29:21.340 ,6,0,0.,24.0,0.,24.0,2.,24.0,0.,24.0
1979-07-30 10:29:45.340 ,7,1,11.,24.0,0.,24.0,0.,24.0,0.,24.0
1979-07-30 10:30:09.340 ,7,0,34.,24.0,0.,24.0,1.,24.0,0.,24.0
1979-07-30 10:30:33.340 ,7,1,31.,24.0,0.,24.0,0.,24.0,0.,24.0
1979-07-30 10:30:57.340 ,7,0,30.,24.0,0.,24.0,2.,24.0,0.,24.0
1979-07-30 10:31:21.340 ,6,1,25.,24.0,0.,24.0,1.,24.0,0.,24.0
1979-07-30 10:31:45.340 ,6,0,0.,24.0,0.,24.0,2.,24.0,0.,24.0
1979-07-30 10:32:09.340 ,5,1,0.,24.0,0.,24.0,1.,24.0,0.,24.0
1979-07-30 10:32:33.340 ,5,0,0.,24.0,0.,24.0,0.,24.0,0.,24.0
1979-07-30 10:32:57.340 ,4,1,0.,24.0,0.,24.0,2.,24.0,0.,24.0
1979-07-30 10:33:21.340 ,4,0,0.,24.0,1.,24.0,1.,24.0,0.,24.0
1979-07-30 10:33:45.340 ,3,1,0.,24.0,0.,24.0,1.,24.0,0.,24.0
1979-07-30 10:34:09.340 ,3,0,0.,24.0,0.,24.0,0.,24.0,0.,24.0
1979-07-30 10:34:33.340 ,2,1,0.,24.0,0.,24.0,1.,24.0,0.,24.0
1979-07-30 10:34:57.340 ,2,0,0.,24.0,1.,24.0,0.,24.0,0.,24.0
1979-07-30 10:35:21.340 ,1,1,0.,24.0,0.,24.0,0.,24.0,0.,24.0
1979-07-30 10:35:45.340 ,1,0,0.,24.0,0.,24.0,0.,24.0,0.,24.0
1979-07-30 10:36:09.340 ,0,1,1.,24.0,0.,24.0,2.,24.0,0.,24.0
1979-07-30 10:36:33.340 ,0,0,0.,24.0,0.,24.0,4.,24.0,0.,24.0
1979-07-30 10:36:57.340 ,0,1,0.,24.0,0.,24.0,2.,24.0,0.,24.0
1979-07-30 10:37:21.340 ,0,0,0.,24.0,0.,24.0,0.,24.0,0.,24.0
1979-07-30 10:37:45.340 ,1,1,1.,24.0,0.,24.0,2.,24.0,0.,24.0
1979-07-30 10:38:09.340 ,1,0,0.,24.0,0.,24.0,3.,24.0,0.,24.0
1979-07-30 10:38:33.340 ,2,1,0.,24.0,0.,24.0,0.,24.0,0.,24.0
1979-07-30 10:38:57.340 ,2,0,0.,24.0,0.,24.0,3.,24.0,0.,24.0
1979-07-30 10:39:21.340 ,3,1,0.,24.0,0.,24.0,2.,24.0,0.,24.0
1979-07-30 10:39:45.340 ,3,0,0.,24.0,0.,24.0,2.,24.0,0.,24.0
1979-07-30 10:40:09.340 ,4,1,0.,24.0,0.,24.0,2.,24.0,0.,24.0
1979-07-30 10:40:33.340 ,4,0,0.,24.0,0.,24.0,0.,24.0,0.,24.0
1979-07-30 10:40:57.340 ,5,1,0.,24.0,0.,24.0,1.,24.0,0.,24.0
1979-07-30 10:41:21.340 ,5,0,0.,24.0,0.,24.0,3.,24.0,0.,24.0
1979-07-30 10:41:45.340 ,6,1,0.,24.0,0.,24.0,0.,24.0,0.,24.0
1979-07-30 10:42:09.340 ,6,0,1.,24.0,0.,24.0,1.,24.0,0.,24.0
1979-07-30 10:42:33.340 ,7,0,4.,24.0,0.,24.0,0.,24.0,0.,24.0
1979-07-30 10:42:57.340 ,7,0,22.,24.0,0.,24.0,2.,24.0,0.,24.0
1979-07-30 10:43:21.340 ,5,1,16.,24.0,0.,24.0,3.,24.0,0.,24.0
1979-07-30 10:43:45.340 ,1,1,0.,24.0,0.,24.0,2.,24.0,0.,24.0
1979-07-30 10:44:09.340 ,2,1,0.,24.0,0.,24.0,1.,24.0,0.,24.0
1979-07-30 10:44:33.340 ,6,1,0.,24.0,0.,24.0,1.,24.0,0.,24.0
1979-07-30 10:44:57.340 ,5,1,13.,24.0,0.,24.0,0.,24.0,0.,24.0
1979-07-30 10:45:21.340 ,1,1,0.,24.0,0.,24.0,1.,24.0,0.,24.0
1979-07-30 10:45:45.340 ,2,1,0.,24.0,0.,24.0,4.,24.0,0.,24.0
1979-07-30 10:46:09.340 ,6,1,0.,24.0,0.,24.0,3.,24.0,0.,24.0
1979-07-30 10:46:33.340 ,5,1,11.,24.0,0.,24.0,0.,24.0,0.,24.0
1979-07-30 10:46:57.340 ,1,1,0.,24.0,0.,24.0,3.,24.0,0.,24.0
1979-07-30 10:47:21.340 ,2,1,0.,24.0,0.,24.0,1.,24.0,0.,24.0
1979-07-30 10:47:45.340 ,6,1,0.,24.0,0.,24.0,0.,24.0,0.,24.0
1979-07-30 10:48:09.340 ,5,1,15.,24.0,0.,24.0,5.,24.0,0.,24.0
1979-07-30 10:48:33.340 ,1,1,0.,24.0,0.,24.0,1.,24.0,0.,24.0
1979-07-30 10:48:57.340 ,2,1,0.,24.0,0.,24.0,0.,24.0,0.,24.0
1979-07-30 10:49:21.340 ,6,1,0.,24.0,0.,24.0,1.,24.0,0.,24.0
1979-07-30 10:49:45.340 ,5,1,16.,24.0,0.,24.0,1.,24.0,0.,24.0
1979-07-30 10:50:09.340 ,1,1,0.,24.0,0.,24.0,0.,24.0,0.,24.0
1979-07-30 10:50:33.340 ,2,1,0.,24.0,0.,24.0,1.,24.0,0.,24.0
1979-07-30 10:50:57.340 ,6,1,0.,24.0,1.,24.0,3.,24.0,0.,24.0
1979-07-30 10:51:21.340 ,5,1,16.,24.0,0.,24.0,3.,24.0,0.,24.0
1979-07-30 10:51:45.340 ,1,1,0.,24.0,0.,24.0,3.,24.0,0.,24.0
1979-07-30 10:52:09.340 ,2,1,0.,24.0,0.,24.0,0.,24.0,0.,24.0
1979-07-30 10:52:33.340 ,6,1,0.,24.0,0.,24.0,1.,24.0,0.,24.0
1979-07-30 10:52:57.340 ,5,1,17.,24.0,0.,24.0,2.,24.0,0.,24.0
1979-07-30 10:53:21.340 ,1,1,0.,24.0,0.,24.0,3.,24.0,0.,24.0
1979-07-30 10:53:45.340 ,0,0,0.,24.0,0.,24.0,3.,24.0,0.,24.0
1979-07-30 10:54:09.340 ,0,0,1.,24.0,0.,24.0,1.,24.0,0.,24.0
1979-07-30 10:54:33.340 ,5,1,16.,24.0,0.,24.0,1.,24.0,0.,24.0
1979-07-30 10:54:57.340 ,5,0,0.,24.0,0.,24.0,2.,24.0,0.,24.0
1979-07-30 10:55:21.340 ,4,1,1.,24.0,0.,24.0,2.,24.0,0.,24.0
1979-07-30 10:55:45.340 ,4,0,1.,24.0,0.,24.0,4.,24.0,0.,24.0
1979-07-30 10:56:09.340 ,3,1,0.,24.0,0.,24.0,1.,24.0,0.,24.0
1979-07-30 10:56:33.340 ,3,0,0.,24.0,0.,24.0,2.,24.0,0.,24.0
1979-07-30 10:56:57.340 ,2,1,0.,24.0,0.,24.0,1.,24.0,0.,24.0
1979-07-30 10:57:21.340 ,2,0,0.,24.0,0.,24.0,0.,24.0,0.,24.0
1979-07-30 10:57:45.340 ,1,1,0.,24.0,0.,24.0,1.,24.0,0.,24.0
1979-07-30 10:58:09.340 ,1,0,0.,24.0,0.,24.0,2.,24.0,0.,24.0
1979-07-30 10:58:33.340 ,0,1,0.,24.0,0.,24.0,0.,24.0,0.,24.0
1979-07-30 10:58:57.340 ,0,0,0.,24.0,0.,24.0,1.,24.0,0.,24.0
1979-07-30 10:59:21.340 ,0,1,0.,24.0,0.,24.0,2.,24.0,0.,24.0
1979-07-30 10:59:45.340 ,0,0,0.,24.0,0.,24.0,2.,24.0,0.,24.0
1979-07-30 11:00:09.340 ,1,1,0.,24.0,0.,24.0,2.,24.0,0.,24.0
1979-07-30 11:00:33.340 ,1,0,0.,24.0,1.,24.0,2.,24.0,0.,24.0
1979-07-30 11:11:21.340 ,0,0,0.,24.0,0.,24.0,3.,24.0,0.,24.0
1979-07-30 11:11:45.340 ,0,0,0.,24.0,0.,24.0,1.,24.0,0.,24.0
1979-07-30 11:12:09.340 ,0,1,0.,24.0,0.,24.0,1.,24.0,0.,24.0
1979-07-30 11:12:33.340 ,0,0,0.,24.0,0.,24.0,3.,24.0,0.,24.0
1979-07-30 11:12:57.340 ,1,1,0.,24.0,0.,24.0,1.,24.0,0.,24.0
1979-07-30 11:13:21.340 ,1,0,0.,24.0,0.,24.0,2.,24.0,0.,24.0
1979-07-30 11:13:45.340 ,2,1,1.,24.0,0.,24.0,1.,24.0,0.,24.0
1979-07-30 11:14:09.340 ,2,0,0.,24.0,0.,24.0,1.,24.0,0.,24.0
1979-07-30 11:14:33.340 ,3,1,0.,24.0,0.,24.0,1.,24.0,0.,24.0
1979-07-30 11:14:57.340 ,3,0,0.,24.0,0.,24.0,2.,24.0,0.,24.0
1979-07-30 11:15:21.340 ,4,1,0.,24.0,0.,24.0,2.,24.0,0.,24.0
1979-07-30 11:15:45.340 ,4,0,0.,24.0,0.,24.0,2.,24.0,0.,24.0
1979-07-30 11:16:09.340 ,5,1,0.,24.0,0.,24.0,1.,24.0,0.,24.0
1979-07-30 11:16:33.340 ,5,0,0.,24.0,0.,24.0,2.,24.0,0.,24.0
1979-07-30 11:16:57.340 ,6,1,0.,24.0,0.,24.0,1.,24.0,0.,24.0
1979-07-30 11:17:21.340 ,6,0,0.,24.0,0.,24.0,1.,24.0,0.,24.0
1979-07-30 11:17:45.340 ,7,1,7.,24.0,0.,24.0,0.,24.0,0.,24.0
1979-07-30 11:18:09.340 ,7,0,31.,24.0,0.,24.0,1.,24.0,0.,24.0
1979-07-30 11:18:33.340 ,7,1,31.,24.0,0.,24.0,0.,24.0,0.,24.0
1979-07-30 11:18:57.340 ,7,0,28.,24.0,0.,24.0,1.,24.0,0.,24.0
1979-07-30 11:19:21.340 ,6,1,28.,24.0,0.,24.0,2.,24.0,0.,24.0
1979-07-30 11:19:45.340 ,6,0,1.,24.0,0.,24.0,2.,24.0,0.,24.0
1979-07-30 11:20:09.340 ,5,1,1.,24.0,0.,24.0,1.,24.0,0.,24.0
1979-07-30 11:20:33.340 ,5,0,0.,24.0,0.,24.0,0.,24.0,0.,24.0
1979-07-30 11:20:57.340 ,4,1,0.,24.0,0.,24.0,1.,24.0,0.,24.0
1979-07-30 11:21:21.340 ,4,0,0.,24.0,0.,24.0,1.,24.0,0.,24.0
1979-07-30 11:21:45.340 ,3,1,0.,24.0,0.,24.0,2.,24.0,0.,24.0
1979-07-30 11:22:09.340 ,3,0,0.,24.0,0.,24.0,0.,24.0,0.,24.0
1979-07-30 11:22:33.340 ,2,1,0.,24.0,0.,24.0,3.,24.0,0.,24.0
1979-07-30 11:22:57.340 ,2,0,0.,24.0,0.,24.0,1.,24.0,0.,24.0
1979-07-30 11:23:21.340 ,1,1,0.,24.0,0.,24.0,2.,24.0,0.,24.0
1979-07-30 11:23:45.340 ,1,0,1.,24.0,0.,24.0,1.,24.0,0.,24.0
1979-07-30 11:24:09.340 ,0,1,0.,24.0,0.,24.0,1.,24.0,0.,24.0
1979-07-30 11:24:33.340 ,0,0,0.,24.0,0.,24.0,2.,24.0,0.,24.0
1979-07-30 11:24:57.340 ,0,1,0.,24.0,0.,24.0,0.,24.0,0.,24.0
1979-07-30 11:25:21.340 ,0,0,0.,24.0,0.,24.0,2.,24.0,0.,24.0
1979-07-30 11:25:45.340 ,1,1,0.,24.0,0.,24.0,2.,24.0,0.,24.0
1979-07-30 11:26:09.340 ,1,0,0.,24.0,0.,24.0,1.,24.0,0.,24.0
1979-07-30 11:26:33.340 ,2,1,0.,24.0,0.,24.0,2.,24.0,0.,24.0
1979-07-30 11:26:57.340 ,2,0,0.,24.0,0.,24.0,1.,24.0,0.,24.0
1979-07-30 11:27:21.340 ,3,1,1.,24.0,0.,24.0,2.,24.0,0.,24.0
1979-07-30 11:27:45.340 ,3,0,0.,24.0,0.,24.0,2.,24.0,0.,24.0
1979-07-30 11:28:09.340 ,4,1,0.,24.0,0.,24.0,1.,24.0,0.,24.0
1979-07-30 11:28:33.340 ,4,0,1.,24.0,0.,24.0,0.,24.0,0.,24.0
1979-07-30 11:28:57.340 ,5,1,0.,24.0,0.,24.0,3.,24.0,0.,24.0
1979-07-30 11:29:21.340 ,5,0,0.,24.0,0.,24.0,0.,24.0,0.,24.0
1979-07-30 11:29:45.340 ,6,1,0.,24.0,0.,24.0,2.,24.0,0.,24.0
1979-07-30 11:30:09.340 ,6,0,0.,24.0,0.,24.0,5.,24.0,0.,24.0
1979-07-30 11:30:33.340 ,7,0,15.,24.0,0.,24.0,2.,24.0,0.,24.0
1979-07-30 11:30:57.340 ,7,0,37.,24.0,0.,24.0,2.,24.0,0.,24.0
1979-07-30 11:31:21.340 ,5,1,15.,24.0,0.,24.0,3.,24.0,0.,24.0
1979-07-30 11:31:45.340 ,1,1,0.,24.0,0.,24.0,3.,24.0,0.,24.0
1979-07-30 11:32:09.340 ,2,1,0.,24.0,0.,24.0,2.,24.0,0.,24.0
1979-07-30 11:32:33.340 ,6,1,0.,24.0,0.,24.0,2.,24.0,0.,24.0
1979-07-30 11:32:57.340 ,5,1,9.,24.0,0.,24.0,1.,24.0,0.,24.0
1979-07-30 11:33:21.340 ,1,1,0.,24.0,0.,24.0,3.,24.0,0.,24.0
1979-07-30 11:33:45.340 ,2,1,0.,24.0,0.,24.0,0.,24.0,0.,24.0
1979-07-30 11:34:09.340 ,6,1,0.,24.0,0.,24.0,1.,24.0,0.,24.0
1979-07-30 11:34:33.340 ,5,1,17.,24.0,0.,24.0,3.,24.0,0.,24.0
1979-07-30 11:34:57.340 ,1,1,0.,24.0,0.,24.0,2.,24.0,0.,24.0
1979-07-30 11:35:21.340 ,2,1,0.,24.0,0.,24.0,1.,24.0,0.,24.0
1979-07-30 11:35:45.340 ,6,1,0.,24.0,0.,24.0,4.,24.0,0.,24.0
1979-07-30 11:36:09.340 ,5,1,15.,24.0,0.,24.0,3.,24.0,0.,24.0
1979-07-30 11:36:33.340 ,1,1,0.,24.0,0.,24.0,2.,24.0,0.,24.0
1979-07-30 11:36:57.340 ,2,1,0.,24.0,0.,24.0,1.,24.0,0.,24.0
1979-07-30 11:37:21.340 ,6,1,0.,24.0,0.,24.0,1.,24.0,0.,24.0
1979-07-30 11:37:45.340 ,5,1,20.,24.0,0.,24.0,1.,24.0,0.,24.0
1979-07-30 11:38:09.340 ,1,1,0.,24.0,0.,24.0,3.,24.0,0.,24.0
1979-07-30 11:38:33.340 ,2,1,0.,24.0,0.,24.0,1.,24.0,0.,24.0
1979-07-30 11:38:57.340 ,6,1,0.,24.0,0.,24.0,2.,24.0,0.,24.0
1979-07-30 11:39:21.340 ,5,1,21.,24.0,0.,24.0,4.,24.0,0.,24.0
1979-07-30 11:39:45.340 ,1,1,0.,24.0,0.,24.0,2.,24.0,0.,24.0
1979-07-30 11:40:09.340 ,2,1,0.,24.0,0.,24.0,0.,24.0,0.,24.0
1979-07-30 11:40:33.340 ,6,1,0.,24.0,0.,24.0,3.,24.0,0.,24.0
1979-07-30 11:40:57.340 ,5,1,14.,24.0,0.,24.0,0.,24.0,0.,24.0
1979-07-30 11:41:21.340 ,1,1,1.,24.0,0.,24.0,1.,24.0,0.,24.0
1979-07-30 11:41:45.340 ,0,0,1.,24.0,0.,24.0,1.,24.0,0.,24.0
1979-07-30 11:42:09.340 ,0,0,1.,24.0,0.,24.0,3.,24.0,0.,24.0
1979-07-30 11:42:33.340 ,5,1,20.,24.0,0.,24.0,2.,24.0,0.,24.0
1979-07-30 11:42:57.340 ,5,0,0.,24.0,0.,24.0,1.,24.0,0.,24.0
1979-07-30 11:43:21.340 ,4,1,0.,24.0,0.,24.0,1.,24.0,0.,24.0
1979-07-30 11:43:45.340 ,4,0,0.,24.0,0.,24.0,2.,24.0,0.,24.0
1979-07-30 11:44:09.340 ,3,1,0.,24.0,0.,24.0,1.,24.0,0.,24.0
1979-07-30 11:44:33.340 ,3,0,0.,24.0,0.,24.0,0.,24.0,0.,24.0
1979-07-30 11:44:57.340 ,0,0,0.,24.0,0.,24.0,0.,24.0,0.,24.0
1979-07-30 11:45:21.340 ,0,0,0.,24.0,0.,24.0,1.,24.0,0.,24.0